Home > Weather > Mutare > Past weeks

Flag for Zimbabwe Weather for the Past 2 Weeks in Mutare, Zimbabwe

Now
64 °F

Passing clouds.


Feels Like: 64 °F
Forecast: 60 / 84 °F
Wind: 8 mph from East

Location: Harare Kutsaga Airport

Current Time: Feb 12, 2016 at 3:41:49 AM

Latest Report: Feb 12, 2016 at 3:00 AM


Visibility: N/A

Pressure: 30.09 "Hg (26.45 "Hg at 1099m altitude)

Humidity: 100%

Dew point: 64 °F

Location of MutareLocation

Historic Weather in Mutare — Graph

°F

Mutare Temperature Yesterday

Maximum temperature yesterday: 82 °F (at 1:00 PM)
Minimum temperature yesterday: 63 °F (at 1:00 AM)
Average temperature yesterday: 74 °F

High & Low Weather Summary for the Past Weeks

 TemperatureHumidityPressure
High91 °F (Feb 7, 1:00 PM)100% (Jan 28, 2:00 AM)30.24 "Hg (Jan 28, 2:00 AM)
Low57 °F (Feb 2, 5:00 AM)30% (Feb 10, 5:00 PM)30.01 "Hg (Feb 4, 5:00 PM)
Average72 °F72%30.14 "Hg
* Reported Jan 28 2:00 AM — Feb 12 2:00 AM, Mutare, Weather by CustomWeather, © 2016

Note: Actual official high and low records may vary slightly from our data, if they occured in-between our weather recording intervals... More about our weather records

Advertising

Mutare Weather History for the Previous 24 Hours

 ConditionsComfort  
Time TempWeatherWind HumidityBarometerVisibility
2:00 AM
Fri, Feb 12
64 °FLight rain. Passing clouds.5 mph100%30.12 "HgN/A
1:00 AM64 °FThunderstorms. Passing clouds.6 mph100%30.12 "HgN/A
11:00 PM
Thu, Feb 11
70 °FOvercast.1 mph100%30.12 "HgN/A
10:00 PM75 °FLight rain. Overcast.7 mph69%30.12 "Hg5 mi
9:00 PM73 °FClear.6 mph69%30.09 "Hg10 mi
7:00 PM77 °FPassing clouds.8 mph57%30.04 "HgN/A
6:00 PM82 °FScattered clouds.No wind45%30.04 "HgN/A
5:00 PM82 °FPassing clouds.3 mph40%30.04 "HgN/A
4:00 PM82 °FScattered clouds.3 mph42%30.04 "HgN/A
3:00 PM82 °FScattered clouds.6 mph42%30.07 "HgN/A
2:00 PM82 °FScattered clouds.7 mph45%30.09 "HgN/A
1:00 PM82 °FScattered clouds.3 mph48%30.09 "HgN/A
12:00 PM81 °FScattered clouds.8 mph48%30.12 "HgN/A
11:00 AM79 °FPartly sunny.8 mph51%30.15 "HgN/A
10:00 AM79 °FScattered clouds.8 mph58%30.15 "HgN/A
9:00 AM75 °FPassing clouds.9 mph61%30.18 "HgN/A
8:00 AM72 °FPassing clouds.12 mph65%30.15 "HgN/A
7:00 AM68 °FPassing clouds.8 mph73%30.15 "HgN/A
6:00 AM63 °FSunny.7 mph88%30.12 "Hg10 mi
5:00 AM63 °FClear.6 mph88%30.12 "Hg10 mi
4:00 AM64 °FClear.8 mph78%30.12 "Hg10 mi
3:00 AM64 °FClear.8 mph83%30.09 "Hg10 mi
Weather by CustomWeather, © 2016

See weather overviewHow to use our weather pages